WA9NNN-10 Weather Reports


time (UTC)temp
C
wind
direction
speed
KPH
gust
KPH
rain 1hr
cm
rain 24hr
cm
rain mn
cm
humidity
%
barometer
mb
20260509150636 19 224 3.2 6.4 0.00 0.00 0.00 62 1003.8
20260509150136 18 229 6.4 8.0 0.00 0.00 0.00 63 1003.7
20260509145636 18 228 14.5 9.7 0.00 0.00 0.00 64 1003.7
20260509145137 18 215 12.9 9.7 0.00 0.00 0.00 65 1003.6
20260509144636 18 160 16.1 6.4 0.00 0.00 0.00 65 1003.6
20260509144136 18 224 11.3 6.4 0.00 0.00 0.00 67 1003.7
20260509143637 17 221 3.2 8.0 0.00 0.00 0.00 68 1003.8
20260509143137 17 230 6.4 8.0 0.00 0.00 0.00 69 1003.7
20260509142636 17 200 9.7 9.7 0.00 0.00 0.00 69 1003.6
20260509142136 17 223 8.0 8.0 0.00 0.00 0.00 69 1003.6
20260509141636 17 214 11.3 8.0 0.00 0.00 0.00 70 1003.6
20260509141137 16 226 8.0 6.4 0.00 0.00 0.00 71 1003.6
20260509140636 16 209 9.7 6.4 0.00 0.00 0.00 72 1003.7
20260509140137 16 269 8.0 6.4 0.00 0.00 0.00 72 1003.7
20260509135636 16 281 3.2 8.0 0.00 0.00 0.00 73 1003.5
20260509135137 16 221 8.0 8.0 0.00 0.00 0.00 73 1003.3
20260509134638 16 205 8.0 8.0 0.00 0.00 0.00 74 1003.4
20260509134136 15 231 9.7 8.0 0.00 0.00 0.00 74 1003.3
20260509133637 15 210 6.4 6.4 0.00 0.00 0.00 75 1003.4
20260509133136 15 180 8.0 6.4 0.00 0.00 0.00 76 1003.8
20260509132636 15 233 3.2 6.4 0.00 0.00 0.00 77 1003.8
20260509132136 15 236 8.0 6.4 0.00 0.00 0.00 78 1003.7
20260509131636 15 224 3.2 6.4 0.00 0.00 0.00 79 1003.7
20260509131136 14 245 3.2 6.4 0.00 0.00 0.00 80 1003.8
20260509130636 14 229 4.8 6.4 0.00 0.00 0.00 81 1003.7
20260509130137 13 238 4.8 8.0 0.00 0.00 0.00 81 1003.6
20260509125636 13 210 6.4 6.4 0.00 0.00 0.00 83 1003.6
20260509125137 13 234 8.0 6.4 0.00 0.00 0.00 83 1003.6
20260509124636 13 211 9.7 6.4 0.00 0.00 0.00 84 1003.7
20260509124137 13 235 16.1 6.4 0.00 0.00 0.00 85 1003.8
20260509123636 13 173 3.2 6.4 0.00 0.00 0.00 85 1003.7
20260509123137 12 216 9.7 6.4 0.00 0.00 0.00 86 1003.7
20260509122636 12 179 4.8 6.4 0.00 0.00 0.00 86 1003.6
20260509122136 12 223 4.8 6.4 0.00 0.00 0.00 87 1003.7
20260509121636 12 209 11.3 6.4 0.00 0.00 0.00 87 1003.6
20260509121136 12 217 6.4 4.8 0.00 0.00 0.00 87 1003.7
20260509120636 12 199 4.8 4.8 0.00 0.00 0.00 87 1003.7
20260509120137 12 212 3.2 6.4 0.00 0.00 0.00 87 1003.7
20260509115636 12 203 4.8 6.4 0.00 0.00 0.00 87 1003.6
20260509115136 12 220 6.4 6.4 0.00 0.00 0.00 88 1003.6
20260509114636 12 175 6.4 4.8 0.00 0.00 0.00 87 1003.5
20260509114136 12 212 3.2 4.8 0.00 0.00 0.00 87 1003.4
20260509113636 12 191 1.6 3.2 0.00 0.00 0.00 87 1003.4
20260509113137 12 200 6.4 3.2 0.00 0.00 0.00 87 1003.4
20260509112636 12 0 0.0 3.2 0.00 0.00 0.00 87 1003.5
20260509112137 12 231 3.2 3.2 0.00 0.00 0.00 87 1003.4
20260509111636 12 210 3.2 4.8 0.00 0.00 0.00 87 1003.3
20260509111136 12 219 6.4 6.4 0.00 0.00 0.00 87 1003.0
20260509110637 12 218 9.7 6.4 0.00 0.00 0.00 87 1003.0
20260509110136 12 221 1.6 6.4 0.00 0.00 0.00 87 1002.8
20260509105636 12 233 4.8 6.4 0.00 0.00 0.00 87 1003.0
20260509105137 12 210 4.8 6.4 0.00 0.00 0.00 87 1003.0
20260509104637 12 216 3.2 6.4 0.00 0.00 0.00 87 1003.0
20260509104136 12 195 6.4 6.4 0.00 0.00 0.00 87 1002.9
20260509103636 12 179 8.0 6.4 0.00 0.00 0.00 87 1002.9
20260509103136 12 160 9.7 6.4 0.00 0.00 0.00 87 1003.0
20260509102636 11 221 4.8 4.8 0.00 0.00 0.00 87 1002.9
20260509102136 11 115 6.4 4.8 0.00 0.00 0.00 87 1003.0
20260509101636 11 206 3.2 4.8 0.00 0.00 0.00 86 1003.1
20260509101136 11 219 6.4 3.2 0.00 0.00 0.00 86 1003.2
20260509100636 11 203 4.8 3.2 0.00 0.00 0.00 86 1003.2
20260509100138 12 203 1.6 3.2 0.00 0.00 0.00 86 1003.2
20260509095636 12 192 1.6 3.2 0.00 0.00 0.00 86 1003.3
20260509095137 12 175 3.2 3.2 0.00 0.00 0.00 86 1003.4
20260509094636 12 0 0.0 3.2 0.00 0.00 0.00 86 1003.5
20260509094136 12 200 1.6 4.8 0.00 0.00 0.00 86 1003.5
20260509093637 12 214 3.2 3.2 0.00 0.00 0.00 86 1003.6
20260509093136 12 198 4.8 3.2 0.00 0.00 0.00 86 1003.8
20260509092636 12 202 3.2 4.8 0.00 0.00 0.00 85 1003.6
20260509092137 12 210 4.8 4.8 0.00 0.00 0.00 85 1003.6
20260509091636 12 186 4.8 4.8 0.00 0.00 0.00 85 1003.6
20260509091136 12 174 6.4 4.8 0.00 0.00 0.00 85 1003.7
20260509090636 12 236 4.8 4.8 0.00 0.00 0.00 85 1003.8
20260509090136 12 240 8.0 4.8 0.00 0.00 0.00 85 1003.8
20260509085636 12 205 6.4 4.8 0.00 0.00 0.00 85 1003.8
20260509085136 12 230 6.4 6.4 0.00 0.00 0.00 85 1003.9
20260509084637 12 226 9.7 6.4 0.00 0.00 0.00 84 1003.8
20260509084137 12 184 3.2 4.8 0.00 0.00 0.00 84 1003.9
20260509083638 12 222 4.8 4.8 0.00 0.00 0.00 84 1004.0
20260509083138 12 222 4.8 4.8 0.00 0.00 0.00 84 1003.9
20260509082637 12 188 3.2 4.8 0.00 0.00 0.00 84 1003.9
20260509082137 12 222 3.2 4.8 0.00 0.00 0.00 84 1003.8
20260509081637 12 174 6.4 4.8 0.00 0.00 0.00 83 1003.8
20260509081137 12 188 3.2 4.8 0.00 0.00 0.00 83 1003.7
20260509080637 12 217 1.6 4.8 0.00 0.00 0.00 83 1003.8
20260509080137 12 201 8.0 4.8 0.00 0.00 0.00 83 1003.8
20260509075637 12 220 3.2 4.8 0.00 0.00 0.00 83 1003.8
20260509075137 12 222 6.4 6.4 0.00 0.00 0.00 83 1003.8
20260509074637 12 195 3.2 4.8 0.00 0.00 0.00 82 1003.9
20260509074137 12 186 4.8 4.8 0.00 0.00 0.00 82 1004.2
20260509073637 12 229 3.2 4.8 0.00 0.00 0.00 82 1004.2
20260509073137 12 212 11.3 4.8 0.00 0.00 0.00 82 1004.2
20260509072636 12 233 9.7 4.8 0.00 0.00 0.00 82 1004.2
20260509072137 12 221 8.0 4.8 0.00 0.00 0.00 82 1004.3
20260509071637 12 222 6.4 4.8 0.00 0.00 0.00 82 1004.4
20260509071137 12 208 6.4 4.8 0.00 0.00 0.00 81 1004.6
20260509070636 12 236 8.0 4.8 0.00 0.00 0.00 81 1004.7
20260509070138 12 185 6.4 4.8 0.00 0.00 0.00 81 1004.7
20260509065637 12 208 6.4 4.8 0.00 0.00 0.00 81 1004.7
20260509065138 12 222 4.8 4.8 0.00 0.00 0.00 81 1004.8
20260509064637 12 210 9.7 4.8 0.00 0.00 0.00 81 1004.9
20260509064138 13 229 8.0 4.8 0.00 0.00 0.00 81 1004.8
20260509063636 13 207 8.0 4.8 0.00 0.00 0.00 81 1004.9
20260509063137 13 213 9.7 6.4 0.00 0.00 0.00 81 1004.9
20260509062637 13 221 1.6 6.4 0.00 0.00 0.00 81 1004.9
20260509062137 13 207 9.7 4.8 0.00 0.00 0.00 81 1005.0
20260509061636 13 216 4.8 4.8 0.00 0.00 0.00 81 1005.0
20260509061137 13 204 8.0 4.8 0.00 0.00 0.00 81 1005.1
20260509060637 13 234 8.0 4.8 0.00 0.00 0.00 81 1005.1
20260509060137 13 229 6.4 4.8 0.00 0.00 0.00 80 1005.2
20260509055637 13 230 3.2 4.8 0.00 0.00 0.00 80 1005.2
20260509055137 13 206 6.4 4.8 0.00 0.00 0.00 80 1005.3
20260509054636 13 195 4.8 4.8 0.00 0.00 0.00 80 1005.2
20260509054137 13 213 3.2 4.8 0.00 0.00 0.00 79 1005.3
20260509053637 13 185 3.2 4.8 0.00 0.00 0.00 79 1005.3
20260509053137 13 221 1.6 6.4 0.00 0.00 0.00 79 1005.2
20260509052637 13 213 8.0 6.4 0.00 0.00 0.00 79 1005.3
20260509052138 13 151 1.6 6.4 0.00 0.00 0.00 78 1005.2
20260509051637 13 233 6.4 6.4 0.00 0.00 0.00 78 1005.1
20260509051137 13 210 6.4 6.4 0.00 0.00 0.00 77 1005.2
20260509050636 13 175 4.8 4.8 0.00 0.00 0.00 77 1005.3
20260509050137 13 207 1.6 4.8 0.00 0.00 0.00 77 1005.3
20260509045636 13 210 6.4 4.8 0.00 0.00 0.00 76 1005.2
20260509045137 14 215 6.4 4.8 0.00 0.00 0.00 75 1005.2
20260509044636 14 208 3.2 4.8 0.00 0.00 0.00 75 1005.3
20260509044137 14 221 1.6 4.8 0.00 0.00 0.00 74 1005.4
20260509043637 14 187 3.2 6.4 0.00 0.00 0.00 74 1005.4
20260509043137 14 201 8.0 6.4 0.00 0.00 0.00 74 1005.4
20260509042636 14 229 6.4 6.4 0.00 0.00 0.00 73 1005.4
20260509042137 14 180 8.0 6.4 0.00 0.00 0.00 73 1005.2
20260509041637 14 200 9.7 6.4 0.00 0.00 0.00 73 1005.4
20260509041137 14 184 6.4 6.4 0.00 0.00 0.00 73 1005.3
20260509040637 14 205 4.8 6.4 0.00 0.00 0.00 73 1005.4
20260509040137 14 182 14.5 6.4 0.00 0.00 0.00 73 1005.3
20260509035637 14 187 1.6 4.8 0.00 0.00 0.00 73 1005.5
20260509035137 13 213 1.6 4.8 0.00 0.00 0.00 72 1005.5
20260509034636 13 219 4.8 4.8 0.00 0.00 0.00 72 1005.6
20260509034137 13 186 6.4 3.2 0.00 0.00 0.00 72 1005.5
20260509033636 13 211 3.2 3.2 0.00 0.00 0.00 72 1005.5
20260509033137 13 219 6.4 3.2 0.00 0.00 0.00 72 1005.5
20260509032637 13 197 3.2 3.2 0.00 0.00 0.00 71 1005.6
20260509032137 13 196 3.2 3.2 0.00 0.00 0.00 71 1005.4
20260509031636 13 205 3.2 3.2 0.00 0.00 0.00 71 1005.5
20260509031137 13 217 4.8 4.8 0.00 0.00 0.00 71 1005.5
20260509030636 13 196 6.4 4.8 0.00 0.00 0.00 70 1005.5
20260509030137 13 150 4.8 3.2 0.00 0.00 0.00 70 1005.6
20260509025637 13 186 3.2 3.2 0.00 0.00 0.00 70 1005.5
20260509025137 13 198 3.2 1.6 0.00 0.00 0.00 69 1005.5
20260509024636 13 0 0.0 0.0 0.00 0.00 0.00 68 1005.7
20260509024137 13 0 0.0 0.0 0.00 0.00 0.00 68 1005.7
20260509023637 13 0 0.0 0.0 0.00 0.00 0.00 68 1005.8
20260509023138 13 0 0.0 0.0 0.00 0.00 0.00 67 1005.8
20260509022636 13 0 0.0 0.0 0.00 0.00 0.00 67 1005.8
20260509022137 13 0 0.0 0.0 0.00 0.00 0.00 67 1005.8
20260509021636 13 0 0.0 0.0 0.00 0.00 0.00 66 1005.9
20260509021137 13 0 0.0 0.0 0.00 0.00 0.00 66 1005.9
20260509020636 13 0 0.0 0.0 0.00 0.00 0.00 65 1005.9
20260509020137 13 0 0.0 0.0 0.00 0.00 0.00 65 1005.8
20260509015636 13 0 0.0 0.0 0.00 0.00 0.00 65 1005.8
20260509015137 13 0 0.0 0.0 0.00 0.00 0.00 64 1005.7
20260509014637 13 0 0.0 0.0 0.00 0.00 0.00 64 1005.7
20260509014137 13 0 0.0 0.0 0.00 0.00 0.00 63 1005.7
20260509013636 13 0 0.0 0.0 0.00 0.00 0.00 62 1005.8
20260509013137 13 0 0.0 0.0 0.00 0.00 0.00 61 1005.8
20260509012636 13 0 0.0 0.0 0.00 0.00 0.00 61 1005.7
20260509012137 13 0 0.0 0.0 0.00 0.00 0.00 60 1005.7
20260509011636 14 0 0.0 0.0 0.00 0.00 0.00 60 1005.6
20260509011137 14 0 0.0 0.0 0.00 0.00 0.00 60 1005.6
20260509010636 14 0 0.0 0.0 0.00 0.00 0.00 59 1005.7
20260509010137 14 79 1.6 0.0 0.00 0.00 0.00 59 1005.7
20260509005636 14 0 0.0 0.0 0.00 0.00 0.00 58 1005.7
20260509005137 14 0 0.0 1.6 0.00 0.00 0.00 58 1005.7
20260509004636 15 0 0.0 1.6 0.00 0.00 0.00 57 1005.7
20260509004137 15 0 0.0 3.2 0.00 0.00 0.00 57 1005.6
20260509003636 15 76 1.6 3.2 0.00 0.00 0.00 57 1005.7
20260509003137 15 60 4.8 3.2 0.00 0.00 0.00 57 1005.8
20260509002637 15 65 4.8 4.8 0.00 0.00 0.00 57 1005.8
20260509002139 15 51 3.2 4.8 0.00 0.00 0.00 56 1005.8
20260509001636 15 91 4.8 3.2 0.00 0.00 0.00 57 1005.9
20260509001137 15 91 6.4 3.2 0.00 0.00 0.00 57 1005.9
20260509000636 15 77 3.2 4.8 0.00 0.00 0.00 57 1006.0
20260509000138 15 64 6.4 3.2 0.00 0.00 0.00 56 1005.9
20260508235638 15 85 3.2 4.8 0.00 0.00 0.00 57 1005.9
20260508235138 15 94 1.6 6.4 0.00 0.00 0.00 56 1006.0
20260508234636 15 79 6.4 6.4 0.00 0.00 0.00 57 1006.0
20260508234136 16 76 6.4 4.8 0.00 0.00 0.00 57 1006.0
20260508233636 16 87 6.4 3.2 0.00 0.00 0.00 58 1006.1
20260508233137 16 60 3.2 3.2 0.00 0.00 0.00 58 1006.0
20260508232636 16 86 1.6 4.8 0.00 0.00 0.00 58 1006.1
20260508232137 16 44 8.0 4.8 0.00 0.00 0.00 57 1006.1
20260508231636 16 106 4.8 4.8 0.00 0.00 0.00 57 1006.2
20260508231136 16 101 1.6 6.4 0.00 0.00 0.00 56 1006.2
20260508230636 16 46 3.2 4.8 0.00 0.00 0.00 56 1006.2
20260508230137 16 60 9.7 4.8 0.00 0.00 0.00 55 1006.2
20260508225636 16 91 4.8 4.8 0.00 0.00 0.00 54 1006.4
20260508225137 16 82 4.8 6.4 0.00 0.00 0.00 54 1006.4
20260508224636 16 82 3.2 6.4 0.00 0.00 0.00 54 1006.4
20260508224137 17 43 4.8 6.4 0.00 0.00 0.00 55 1006.3
20260508223637 17 81 3.2 6.4 0.00 0.00 0.00 55 1006.4
20260508223136 17 89 11.3 8.0 0.00 0.00 0.00 55 1006.3
20260508222636 17 81 8.0 9.7 0.00 0.00 0.00 54 1006.4
20260508222137 17 75 9.7 6.4 0.00 0.00 0.00 54 1006.4
20260508221636 17 71 12.9 6.4 0.00 0.00 0.00 55 1006.4
20260508221137 17 80 3.2 6.4 0.00 0.00 0.00 55 1006.4
20260508220637 17 67 12.9 6.4 0.00 0.00 0.00 55 1006.4
20260508220137 16 87 4.8 8.0 0.00 0.00 0.00 54 1006.4
20260508215637 16 65 8.0 8.0 0.00 0.05 0.00 55 1006.5
20260508215137 16 82 8.0 8.0 0.00 0.05 0.00 56 1006.5
20260508214636 16 75 6.4 8.0 0.00 0.05 0.00 57 1006.6
20260508214136 16 70 11.3 8.0 0.00 0.05 0.00 58 1006.6
20260508213636 16 60 16.1 8.0 0.00 0.05 0.00 59 1006.6
20260508213136 16 72 8.0 9.7 0.00 0.05 0.00 59 1006.5
20260508212636 16 79 8.0 8.0 0.00 0.05 0.00 59 1006.7
20260508212136 16 93 4.8 8.0 0.00 0.05 0.00 61 1006.7
20260508211636 16 77 4.8 8.0 0.00 0.05 0.00 61 1006.7
20260508211137 16 60 8.0 6.4 0.00 0.05 0.00 61 1006.6
20260508210636 16 50 8.0 6.4 0.00 0.05 0.00 62 1006.6
20260508210137 16 79 12.9 8.0 0.00 0.05 0.00 61 1006.6
20260508205636 16 78 3.2 9.7 0.00 0.05 0.00 60 1006.6
20260508205137 16 53 9.7 8.0 0.00 0.05 0.00 59 1006.7
20260508204637 16 68 6.4 6.4 0.00 0.05 0.00 59 1006.7
20260508204136 16 88 3.2 8.0 0.00 0.05 0.00 59 1006.8
20260508203636 16 86 8.0 8.0 0.00 0.05 0.00 58 1006.9
20260508203137 16 69 14.5 6.4 0.00 0.05 0.00 57 1007.0
20260508202636 16 76 6.4 6.4 0.00 0.05 0.00 57 1007.0
20260508202136 15 15 3.2 8.0 0.00 0.05 0.00 56 1007.1
20260508201636 16 63 14.5 8.0 0.00 0.05 0.00 55 1007.1
20260508201137 16 65 14.5 6.4 0.00 0.05 0.00 53 1007.2
20260508200636 16 54 3.2 8.0 0.00 0.05 0.00 52 1007.2
20260508200137 16 56 9.7 9.7 0.00 0.05 0.00 51 1007.4
20260508195636 16 42 12.9 8.0 0.00 0.05 0.00 49 1007.5
20260508195137 16 34 11.3 8.0 0.00 0.05 0.00 48 1007.6
20260508194636 17 67 11.3 8.0 0.00 0.05 0.00 47 1007.5
20260508194136 17 81 8.0 8.0 0.00 0.05 0.00 46 1007.7
20260508193636 18 121 3.2 8.0 0.00 0.05 0.00 44 1007.6
20260508193137 18 75 9.7 8.0 0.00 0.05 0.00 44 1007.7
20260508192636 18 75 6.4 8.0 0.00 0.05 0.00 44 1007.7
20260508192136 19 84 3.2 8.0 0.00 0.05 0.00 44 1007.8
20260508191636 19 82 8.0 9.7 0.00 0.05 0.00 44 1007.8
20260508191137 19 71 14.5 9.7 0.00 0.05 0.00 43 1007.8
20260508190636 19 72 12.9 11.3 0.00 0.05 0.00 43 1007.8
20260508190137 19 139 6.4 9.7 0.00 0.05 0.00 42 1007.9
20260508185636 20 60 14.5 8.0 0.00 0.05 0.00 42 1008.0
20260508185136 20 54 8.0 8.0 0.00 0.05 0.00 41 1008.1
20260508184636 19 0 0.0 9.7 0.00 0.05 0.00 42 1008.1
20260508184136 19 46 9.7 9.7 0.00 0.05 0.00 42 1008.2
20260508183636 20 60 8.0 9.7 0.00 0.05 0.00 41 1008.4
20260508183137 20 52 11.3 8.0 0.00 0.05 0.00 40 1008.4
20260508182636 20 86 4.8 8.0 0.00 0.05 0.00 38 1008.5
20260508182137 20 136 3.2 9.7 0.00 0.05 0.00 37 1008.5
20260508181636 20 69 11.3 9.7 0.00 0.05 0.00 36 1008.5
20260508181136 20 53 11.3 8.0 0.00 0.05 0.00 34 1008.5
20260508180636 20 65 6.4 9.7 0.00 0.05 0.00 33 1008.6
20260508180136 21 68 9.7 8.0 0.00 0.05 0.00 33 1008.8
20260508175636 21 89 8.0 9.7 0.00 0.05 0.00 34 1008.9
20260508175136 21 53 6.4 8.0 0.00 0.05 0.00 34 1008.9
20260508174636 22 95 8.0 6.4 0.00 0.05 0.00 34 1009.2
20260508174136 22 70 11.3 8.0 0.00 0.05 0.00 33 1009.1
20260508173636 21 109 3.2 8.0 0.00 0.05 0.00 34 1009.3
20260508173136 21 83 9.7 8.0 0.00 0.05 0.00 33 1009.3
20260508172636 21 79 8.0 8.0 0.00 0.05 0.00 35 1009.5
20260508172138 21 93 6.4 8.0 0.00 0.05 0.00 36 1009.5
20260508171637 21 91 3.2 6.4 0.00 0.05 0.00 36 1009.6
20260508171137 20 70 8.0 6.4 0.00 0.05 0.00 37 1009.6
20260508170637 20 271 6.4 6.4 0.00 0.05 0.00 39 1009.8
20260508170137 20 19 6.4 4.8 0.00 0.05 0.00 38 1009.8
20260508165637 20 49 4.8 6.4 0.00 0.05 0.00 40 1009.9
20260508165138 19 97 3.2 6.4 0.00 0.05 0.00 41 1009.9
20260508164637 18 67 6.4 6.4 0.00 0.05 0.00 42 1009.9
20260508164137 19 65 6.4 6.4 0.00 0.05 0.00 40 1010.0
20260508163637 19 81 3.2 6.4 0.00 0.05 0.00 40 1010.1
20260508163137 20 54 9.7 6.4 0.00 0.05 0.00 39 1010.3
20260508162637 21 75 6.4 4.8 0.00 0.05 0.00 40 1010.2
20260508162137 20 115 1.6 4.8 0.00 0.05 0.00 42 1010.3
20260508161637 20 53 3.2 3.2 0.00 0.05 0.00 45 1010.2
20260508161137 19 113 3.2 3.2 0.00 0.05 0.00 42 1010.2
20260508160637 20 80 3.2 3.2 0.00 0.05 0.00 41 1010.2
20260508160137 19 192 8.0 4.8 0.00 0.05 0.00 41 1010.3
20260508155638 19 0 0.0 4.8 0.00 0.05 0.00 41 1010.3
20260508155137 19 216 1.6 4.8 0.00 0.05 0.00 42 1010.4
20260508154637 18 218 8.0 4.8 0.00 0.05 0.00 41 1010.5
20260508154138 18 199 4.8 4.8 0.00 0.05 0.00 41 1010.5
20260508153637 18 182 6.4 3.2 0.00 0.05 0.00 45 1010.5
20260508153137 18 195 6.4 3.2 0.00 0.05 0.00 45 1010.7
20260508152637 17 238 4.8 3.2 0.00 0.05 0.00 47 1010.5
20260508152137 17 70 3.2 3.2 0.00 0.05 0.00 46 1010.6
20260508151637 17 0 0.0 3.2 0.00 0.05 0.00 52 1010.6
20260508151137 17 203 4.8 3.2 0.00 0.05 0.00 52 1010.6